Weather History for Montpellier, France

Change the Weather History Date:

Tuesday, September 10, 2013

  Actual Average Record
Temperature  
Mean Temperature 73 °F -  
Max Temperature 81 °F 72 °F 87 °F (1997)
Min Temperature 65 °F 56 °F 53 °F (1996)
Cooling Degree Days 8    
Growing Degree Days 23 (Base 50)    
Moisture  
Dew Point 52 °F    
Average Humidity 50    
Maximum Humidity 73    
Minimum Humidity 26    
Precipitation  
Precipitation 0.00 in - - ()
Sea Level Pressure  
Sea Level Pressure 30.05 in    
Wind  
Wind Speed 10 mph ()    
Max Wind Speed 21 mph    
Max Gust Speed -    
Visibility 6.2 miles    
Events      
Averages and records for this station are not official NWS values.
T = Trace of Precipitation, MM = Missing Value Source: Averaged Metar Reports

Daily Weather History Graph

Daily Weather History Graph

Search for Another Location

Airport:

Trip Planner

Search our weather history database for the weather conditions in past years. The results will help you decide how hot, cold, wet, or windy it might be!

Date:

Astronomy

Sep. 10, 2013 Rise Set
Actual Time 7:17 AM CEST 8:03 PM CEST
Civil Twilight 6:48 AM CEST 8:32 PM CEST
Nautical Twilight 6:14 AM CEST 9:06 PM CEST
Astronomical Twilight 5:38 AM CEST 9:42 PM CEST
Moon 12:37 PM CEST (9/10) 10:42 PM CEST (9/10)
Length of Visible Light 13h 43m
Length of Day
12h 45m
Waxing Crescent, 25% of the Moon is Illuminated
Sep 10
Waxing Crescent
Sep 12
First Quarter
Sep 19
Full
Sep 27
Last Quarter
Oct 5
New

Hourly Weather History & Observations

Time (CEST) Temp. Dew Point Humidity Pressure Visibility Wind Dir Wind Speed Gust Speed Precip Events Conditions
12:00 AM 69.8 °F 50.0 °F 49% 30.12 in 6.2 mi West 12.7 mph - N/A   Unknown
12:30 AM 68.0 °F 51.8 °F 56% 30.12 in 6.2 mi West 11.5 mph - N/A   Unknown
1:00 AM 68.0 °F 51.8 °F 56% 30.09 in 6.2 mi West 6.9 mph - N/A   Unknown
1:30 AM 66.2 °F 51.8 °F 60% 30.09 in 6.2 mi SSW 5.8 mph - N/A   Unknown
2:00 AM 66 °F 52 °F 51% 30.12 in 37 mi West 8.1 mph - -   Clear
2:00 AM 66.2 °F 51.8 °F 60% 30.12 in 6.2 mi West 8.1 mph - N/A   Unknown
2:30 AM 66.2 °F 51.8 °F 60% 30.09 in 6.2 mi West 13.8 mph - N/A   Unknown
3:00 AM 66.2 °F 51.8 °F 60% 30.09 in 6.2 mi WSW 11.5 mph - N/A   Unknown
3:30 AM 66.2 °F 51.8 °F 60% 30.09 in 6.2 mi WSW 4.6 mph - N/A   Mostly Cloudy
4:00 AM 66.2 °F 53.6 °F 64% 30.09 in 6.2 mi WSW 8.1 mph - N/A   Overcast
4:30 AM 66.2 °F 53.6 °F 64% 30.09 in 6.2 mi West 8.1 mph - N/A   Overcast
5:00 AM 66.2 °F 55.4 °F 68% 30.09 in 6.2 mi West 11.5 mph - N/A   Unknown
5:30 AM 66.2 °F 55.4 °F 68% 30.06 in 6.2 mi WSW 11.5 mph - N/A   Unknown
6:00 AM 66.2 °F 53.6 °F 64% 30.06 in 6.2 mi West 9.2 mph - N/A   Unknown
6:30 AM 66.2 °F 55.4 °F 68% 30.06 in 6.2 mi West 9.2 mph - N/A   Unknown
7:00 AM 66.2 °F 57.2 °F 73% 30.06 in 6.2 mi West 9.2 mph - N/A   Unknown
7:30 AM 66.2 °F 57.2 °F 73% 30.06 in 6.2 mi West 9.2 mph - N/A   Partly Cloudy
8:00 AM 66 °F 57 °F 65% 30.08 in 37 mi WNW 6.9 mph - -   Clear
8:00 AM 66.2 °F 57.2 °F 73% 30.06 in 6.2 mi WNW 6.9 mph - N/A   Unknown
8:30 AM 66.2 °F 57.2 °F 73% 30.06 in 6.2 mi Variable 1.2 mph - N/A   Unknown
9:00 AM 68.0 °F 57.2 °F 68% 30.06 in 6.2 mi West 8.1 mph - N/A   Unknown
9:30 AM 68.0 °F 59.0 °F 73% 30.06 in 6.2 mi NW 5.8 mph - N/A   Unknown
10:00 AM 71.6 °F 59.0 °F 64% 30.06 in 6.2 mi WNW 5.8 mph - N/A   Unknown
10:30 AM 73.4 °F 59.0 °F 61% 30.06 in 6.2 mi WNW 9.2 mph - N/A   Mostly Cloudy
11:00 AM 75.2 °F 59.0 °F 57% 30.06 in 6.2 mi West 6.9 mph - N/A   Unknown
11:30 AM 75.2 °F 57.2 °F 53% 30.06 in 6.2 mi West 8.1 mph - N/A   Unknown
12:00 PM 77.0 °F 51.8 °F 41% 30.04 in 6.2 mi West 9.2 mph - N/A   Unknown
12:30 PM 78.8 °F 50.0 °F 36% 30.04 in 6.2 mi West 15.0 mph - N/A   Unknown
1:00 PM 78.8 °F 53.6 °F 42% 30.04 in 6.2 mi West 11.5 mph - N/A   Unknown
1:30 PM 78.8 °F 51.8 °F 39% 30.04 in 6.2 mi West 15.0 mph - N/A   Unknown
2:00 PM 80 °F 51 °F 26% 30.04 in 34 mi West 16.1 mph - -   Clear
2:00 PM 80.6 °F 51.8 °F 37% 30.04 in 6.2 mi West 16.1 mph - N/A   Unknown
2:30 PM 80.6 °F 50.0 °F 34% 30.01 in 6.2 mi West 17.3 mph - N/A   Unknown
3:00 PM 78.8 °F 51.8 °F 39% 30.01 in 6.2 mi West 18.4 mph - N/A   Unknown
3:30 PM 80.6 °F 51.8 °F 37% 30.01 in 6.2 mi West 17.3 mph - N/A   Unknown
4:00 PM 80.6 °F 51.8 °F 37% 29.98 in 6.2 mi West 19.6 mph - N/A   Unknown
4:30 PM 80.6 °F 51.8 °F 37% 29.98 in 6.2 mi West 18.4 mph - N/A   Unknown
5:00 PM 80.6 °F 50.0 °F 34% 29.95 in 6.2 mi West 15.0 mph - N/A   Unknown
5:30 PM 80.6 °F 46.4 °F 30% 29.95 in 6.2 mi WNW 13.8 mph - N/A   Unknown
6:00 PM 80.6 °F 46.4 °F 30% 29.95 in 6.2 mi NW 13.8 mph - N/A   Unknown
6:30 PM 78.8 °F 48.2 °F 34% 29.95 in 6.2 mi WNW 17.3 mph - N/A   Unknown
7:00 PM 78.8 °F 48.2 °F 34% 29.98 in 6.2 mi WNW 19.6 mph - N/A   Unknown
7:30 PM 77.0 °F 48.2 °F 36% 29.98 in - WNW 20.7 mph - N/A   Clear
8:00 PM 75 °F 48 °F 27% 30.01 in 44 mi WNW 16.1 mph - -   Mostly Cloudy
8:00 PM 75.2 °F 48.2 °F 38% 30.01 in - WNW 15.0 mph - N/A   Clear
8:30 PM 75.2 °F 46.4 °F 36% 30.01 in - NW 15.0 mph - N/A   Clear
9:00 PM 73.4 °F 48.2 °F 41% 30.04 in - NW 13.8 mph - N/A   Clear
9:30 PM 71.6 °F 50.0 °F 46% 30.04 in - NW 13.8 mph - N/A   Clear
10:00 PM 71.6 °F 48.2 °F 43% 30.06 in - NNW 13.8 mph - N/A   Clear
10:30 PM 69.8 °F 48.2 °F 46% 30.06 in - NW 9.2 mph - N/A   Clear
11:00 PM 69.8 °F 48.2 °F 46% 30.06 in - NW 8.1 mph - N/A   Clear
11:30 PM 68.0 °F 48.2 °F 49% 30.06 in - NW 6.9 mph - N/A   Clear